TIME,DELAY(SENSOR),PRES,OXYGEN,RAWTEMP,T(OPTODE),TCPHASE,FLUOR,BETA(BETA700),BETA(BETA412),BETA(BETA440),CDOM,C(CSC),ED(ED412.40),ED(ED444.00),ED(ED489.70),ED(ED554.30),LU(LU411.80),LU(LU443.40),LU(LU489.60),LU(LU554.10),COMP,TILTX,TILTY,CHECK
1338090061,5808,890.4000244140625000,42.6704711914062500,661.0695800781250000,4.5927538871765140,54.6100997924804700,52,101,90,78,82,15332,2147757641,2147421650,2148008740,2147879268,2147643748,2147065490,2148257984,2147199606,2847,4,14,44063
1338093657,5809,955.7700195312500000,46.4624595642089840,669.3483886718750000,4.3197188377380370,54.1569290161132800,53,101,91,80,83,15332,2147760237,2147422125,2148007963,2147876736,2147644662,2147057654,2148261046,2147201600,3307,4,13,1753
1338097257,5809,976.8300170898438000,47.7374000549316400,671.6489868164062000,4.2437081336975100,54.0056800842285160,53,99,88,78,84,15337,2147759305,2147424932,2148009700,2147875428,2147647643,2147058560,2148260324,2147198582,1225,4,13,47894
1338100857,5809,982.4400024414062000,48.8843307495117200,674.3275146484375000,4.1551380157470700,53.8816604614257800,53,97,92,79,83,15337,2147760301,2147421952,2148009225,2147878089,2147648521,2147062299,2148263232,2147198473,50,5,13,51325
1338104457,5808,992.1599731445312000,48.2385292053222660,673.1580200195312000,4.1938209533691410,53.9546699523925800,53,100,90,80,83,15332,2147759606,2147426066,2148008978,2147876571,2147644918,2147061504,2148261467,2147204745,2735,4,14,43005
1338108057,5809,992.5700073242188000,47.7840309143066400,672.7498168945312000,4.2073168754577640,54.0148200988769500,53,99,84,79,82,15334,2147757485,2147422198,2148005522,2147880082,2147644690,2147057334,2148261824,2147199277,137,4,14,56013
1338111657,5803,994.4899902343750000,47.7185401916503900,673.1776733398438000,4.1931672096252440,54.0260314941406250,53,100,88,80,83,15335,2147756928,2147422866,2148009261,2147876214,2147647707,2147059035,2148263625,2147200621,3106,4,13,51333
1338115257,5807,1004.2899780273438000,48.0930900573730500,673.6409301757812000,4.1778512001037600,53.9822807312011700,53,103,89,78,83,15333,2147757942,2147422409,2148008027,2147875090,2147645485,2147060736,2148262418,2147200667,3497,4,14,14058
1338118857,5808,1001.7100219726562000,46.9371490478515600,672.0562133789062000,4.2302489280700680,54.1256713867187500,53,100,88,78,83,15333,2147761664,2147421357,2148007872,2147873408,2147645760,2147060306,2148263789,2147203108,3468,4,13,31162
1338122457,5807,997.6699829101562000,47.4802398681640600,673.0457153320312000,4.1975350379943850,54.0571289062500000,52,100,90,80,84,15331,2147757348,2147419446,2148009152,2147876900,2147645659,2147057325,2148264777,2147202249,228,4,13,19140
1338126057,5811,1003.0999755859375000,47.7287902832031250,673.1303710937500000,4.1947331428527830,54.0250511169433600,52,100,88,80,84,15332,2147761837,2147422875,2148007506,2147874633,2147644544,2147063049,2148261942,2147202002,4,4,13,12486
1338129657,5810,992.9000244140625000,47.4261016845703100,673.2930908203125000,4.1893539428710940,54.0704498291015600,52,98,90,79,83,15250,2147759360,2147421403,2148009152,2147876909,2147646226,2147057106,2148260672,2147201846,681,4,14,27797
1338133257,5809,998.1599731445312000,48.5179290771484400,674.4481201171875000,4.1511478424072270,53.9337196350097660,52,99,89,79,84,15249,2147759149,2147421010,2148008137,2147876224,2147642998,2147058834,2148259556,2147203355,376,4,13,65364
1338136857,5809,1003.0700073242188000,48.1961517333984400,674.0778808593750000,4.1633930206298830,53.9702491760253900,53,116,92,80,83,15250,2147761344,2147424539,2148007414,2147876461,2147647259,2147061522,2148264548,2147202934,53,4,13,60594
1338140457,5812,995.7399902343750000,48.4966316223144500,674.5673217773438000,4.1472029685974120,53.9366989135742200,53,100,86,79,83,15250,2147760338,2147420141,2148006354,2147877467,2147646637,2147064320,2148260845,2147199222,259,4,13,6725
1338144057,5810,993.6599731445312000,48.4386100769043000,675.2885742187500000,4.1233367919921875,53.9564895629882800,53,98,89,79,83,15243,2147759734,2147421421,2148010112,2147875300,2147640512,2147061174,2148265819,2147201216,3027,4,13,37867
1338147657,5807,1004.7600097656250000,48.4398918151855500,674.5557250976562000,4.1475868225097660,53.9467506408691400,53,98,90,80,83,15241,2147760502,2147418230,2148011510,2147875382,2147646299,2147053650,2148262902,2147198994,268,4,13,56257
1338151257,5811,1010.4199829101562000,47.6275901794433600,673.4619140625000000,4.1837711334228520,54.0439605712890600,53,99,87,80,84,15243,2147756452,2147422656,2148007542,2147871890,2147644772,2147062701,2148260105,2147199780,180,4,13,53232
1338154857,5807,1010.0800170898438000,47.9723281860351560,673.7440185546875000,4.1744399070739750,54.0030517578125000,53,101,88,79,84,15243,2147760466,2147418797,2148008777,2147880256,2147642249,2147057883,2148265060,2147199954,482,4,13,60218
1338158457,5806,1016.7000122070312000,46.8514404296875000,671.8090209960938000,4.2384219169616700,54.1323509216308600,54,99,87,79,84,15243,2147759515,2147418240,2148008484,2147872100,2147643501,2147059721,2148266313,2147198601,3593,4,14,52299
1338162057,5808,1021.3800048828125000,46.5107002258300800,671.7553710937500000,4.2401938438415530,54.1789207458496100,53,99,90,78,82,15242,2147759862,2147421897,2148007104,2147874688,2147644955,2147059949,2148263360,2147200411,3506,4,14,60074
1338165657,5810,1019.9699707031250000,46.0759010314941400,670.8576049804688000,4.2698631286621090,54.2350311279296900,53,99,88,79,82,15240,2147759561,2147422738,2148005412,2147873856,2147643446,2147061577,2148263899,2147198939,159,4,13,33898
1338169257,5810,1017.7600097656250000,46.4501914978027340,671.6395263671875000,4.2440237998962400,54.1863403320312500,53,101,90,79,83,15240,2147762550,2147422838,2148008932,2147876141,2147643227,2147059986,2148266294,2147202651,2940,4,13,11068
1338172857,5809,1014.8699951171875000,46.0671386718750000,671.1301269531250000,4.2608599662780760,54.2380218505859400,53,100,91,80,83,15240,2147760749,2147419465,2148007561,2147876717,2147640137,2147062336,2148260873,2147199835,3595,4,14,64093
1338176457,5811,1014.6400146484375000,46.0536193847656250,671.6417236328125000,4.2439498901367190,54.2465400695800800,52,99,89,78,84,15242,2147757586,2147421686,2148006683,2147875108,2147646692,2147052909,2148262198,2147198665,3198,4,13,4676
1338180057,5809,1015.2999877929688000,46.4517402648925800,672.8890991210938000,4.2027111053466800,54.2060508728027340,52,103,90,79,83,15239,2147758016,2147419803,2148011200,2147876342,2147647186,2147055497,2148263350,2147201892,521,4,13,1187
1338183657,5808,1005.5000000000000000,47.4925117492675800,674.2039794921875000,4.1592240333557130,54.0722885131835940,52,99,87,79,85,15230,2147762395,2147418368,2148007670,2147871890,2147647058,2147063424,2148264237,2147201554,158,4,13,59806
1338187257,5807,1009.4199829101562000,47.7985992431640600,674.4442749023438000,4.1512718200683590,54.0325202941894500,52,98,87,79,83,15233,2147759853,2147422125,2148010148,2147874889,2147642880,2147060406,2148263104,2147200192,466,4,13,5018
1338190857,5811,1010.4299926757812000,47.0496292114257800,674.5394287109375000,4.1481289863586430,54.1397018432617200,52,100,86,81,84,15231,2147762569,2147423104,2148008237,2147876141,2147642806,2147060416,2148260882,2147198235,277,4,13,2996
1338194457,5810,1007.8499755859375000,47.1803016662597660,674.6815185546875000,4.1434268951416020,54.1228904724121100,53,98,88,80,84,15228,2147762084,2147424566,2148007680,2147877558,2147645632,2147061385,2148262656,2147201828,89,5,13,49646
1338198057,5804,1007.0200195312500000,48.0038414001464840,674.6776733398438000,4.1435508728027340,54.0096397399902340,53,100,87,79,83,15230,2147757595,2147419218,2148007945,2147873526,2147643419,2147060352,2148265865,2147199021,111,4,13,23193
1338201657,5809,999.7299804687500000,48.2541999816894500,675.8236083984375000,4.1056289672851560,53.9850006103515600,52,100,89,79,83,15229,2147759478,2147424978,2148008310,2147873590,2147643392,2147058934,2148265517,2147197549,632,4,13,46148
1338205257,5809,1008.3599853515625000,48.6797103881835940,675.1226196289062000,4.1288318634033200,53.9170684814453100,52,100,88,80,83,15230,2147760722,2147419904,2148008822,2147878125,2147642697,2147059785,2148262921,2147198052,376,4,13,58085
1338208857,5811,1012.1300048828125000,47.5421218872070300,674.2493286132812000,4.1577239036560060,54.0634117126464840,52,102,85,79,83,15227,2147762048,2147423296,2148009408,2147876891,2147643446,2147057197,2148263524,2147200310,3171,4,13,16310
1338212457,5807,1012.3699951171875000,47.3770904541015600,673.3571777343750000,4.1872310638427730,54.0755386352539060,53,99,85,81,85,15227,2147762560,2147423186,2148006006,2147875419,2147641600,2147062061,2148263808,2147200923,2884,4,14,57747
1338216057,5812,1005.6400146484375000,47.1455116271972660,673.9260864257812000,4.1684150695800780,54.1197204589843750,53,99,89,79,83,15224,2147758921,2147423780,2148007122,2147872073,2147648402,2147064594,2148268918,2147199552,3357,4,14,23986
1338219657,5810,1001.5499877929688000,47.9819602966308600,675.6530761718750000,4.1112709045410160,54.0240592956543000,53,98,88,80,83,15228,2147763200,2147421860,2148008164,2147873901,2147644781,2147059456,2148267803,2147198400,3251,4,13,3874
1338223257,5812,1005.2100219726562000,48.3404808044433600,676.3148193359375000,4.0893712043762210,53.9779586791992200,52,100,85,78,83,15226,2147756690,2147420352,2148006902,2147877147,2147643748,2147061988,2148267629,2147200192,3222,4,13,63603
1338226857,5811,1011.5399780273438000,48.1839714050293000,674.7133789062500000,4.1423678398132320,53.9824790954589840,52,97,89,79,83,15225,2147756059,2147423158,2148007478,2147876708,2147644763,2147061595,2148264658,2147201453,212,4,13,1585
1338230457,5809,1018.5399780273438000,47.9835891723632800,673.9315795898438000,4.1682357788085940,54.0032615661621100,52,99,85,78,82,15219,2147758793,2147422729,2148007085,2147875373,2147645769,2147060964,2148262070,2147199469,17,4,13,34659
1338234057,5811,1014.4199829101562000,47.1343383789062500,673.4901733398438000,4.1828351020812990,54.1149101257324200,51,101,89,81,83,15201,2147759158,2147421924,2148006683,2147876324,2147646290,2147061449,2148260809,2147198838,3281,4,13,38452
1338234656,5808,1014.4199829101562000,47.1956596374511700,673.6367187500000000,4.1779880523681640,54.1083106994628900,53,104,88,79,84,15318,2147759753,2147422802,2148006253,2147876077,2147644141,2147056320,2148263049,2147201755,3376,4,13,54784
